Theta_e
333 340 345 345 345 345 343 342 342 342 341 339 338 337 337 337 337 336 336 336 335 335 334 334 333 333 333 333 333 333 332 330 330 330 330 331 330 330 331 332 333 330 335
336 340 344 346 346 344 342 341 339 339 339 338 337 337 337 336 336 335 335 335 334 334 334 334 334 333 333 333 333 333 332 331 331 332 333 330 328 330 331 332 331 328 332
338 341 343 344 344 341 339 338 339 338 337 337 337 336 336 335 335 335 335 334 335 335 335 334 334 334 333 332 333 333 332 332 332 333 333 322 320 333 333 334 334 333 333
339 340 341 341 342 339 338 339 340 337 336 336 336 336 335 335 334 334 334 334 334 334 334 334 335 335 334 334 334 334 334 333 333 333 326 320 322 333 334 334 334 334 334
338 338 339 341 342 341 340 340 339 339 336 336 335 335 334 334 334 334 335 334 333 333 335 335 335 335 335 335 335 334 334 334 333 327 320 319 322 333 335 335 334 335 335
334 337 339 342 343 342 341 340 339 337 335 335 334 334 334 334 334 334 334 335 335 335 336 336 336 335 335 335 335 335 335 333 332 323 318 327 326 336 337 336 337 338 338
334 337 340 341 342 341 340 339 339 337 335 334 334 334 334 334 334 334 333 334 335 336 336 336 336 336 336 336 336 335 334 332 326 323 322 325 329 336 337 338 338 339 339
334 337 338 335 338 339 339 339 338 337 335 335 335 334 334 333 333 333 333 334 335 336 336 336 336 335 335 336 336 335 333 330 326 325 327 329 335 338 338 338 339 338 339
335 335 336 336 335 333 335 336 337 337 337 336 335 334 333 333 332 332 331 332 334 335 336 335 335 335 335 335 335 333 330 328 327 328 329 331 336 338 339 339 338 338 338
334 334 333 334 335 332 331 330 331 334 334 334 333 331 329 329 330 330 329 332 332 334 334 334 334 335 335 334 334 331 328 328 327 327 329 331 336 339 338 337 336 336 336
332 334 331 331 331 329 329 327 328 329 330 329 329 327 327 331 331 330 327 330 332 333 334 334 335 336 333 331 331 329 328 329 325 326 328 329 331 332 332 332 334 333 331
324 328 330 328 328 327 330 327 329 330 329 329 331 333 333 331 329 331 324 327 329 328 334 335 336 333 330 330 329 329 328 324 322 320 323 326 328 329 328 331 331 329 327
321 324 322 323 328 329 327 327 328 328 328 330 327 328 330 330 333 329 327 328 327 324 331 331 331 328 317 317 317 317 324 321 315 315 316 320 323 325 326 330 327 324 322
319 320 324 326 330 330 329 325 324 328 325 323 321 324 327 330 324 321 317 316 315 317 323 318 312 311 307 309 311 316 319 315 309 308 311 315 319 321 320 323 321 320 318
318 321 325 325 328 328 324 326 323 319 318 316 316 317 322 321 317 314 314 311 306 308 309 307 304 304 302 304 306 313 317 309 306 306 306 310 312 315 319 318 317 317 315
320 320 324 325 325 327 323 320 317 316 313 311 311 312 314 315 315 311 307 305 303 303 304 302 301 301 300 300 300 310 312 310 305 303 304 304 308 309 312 312 313 313 312
319 321 323 324 324 318 314 312 310 310 309 308 307 308 309 310 307 305 304 302 300 300 301 301 300 299 298 298 297 304 305 301 297 296 297 296 297 305 307 308 308 309 309
315 317 320 326 319 313 310 308 306 306 305 305 305 305 306 306 306 303 300 299 299 298 298 299 297 296 295 295 295 297 303 299 296 295 295 295 295 295 301 303 304 304 304
315 316 319 316 311 308 307 306 305 304 304 303 303 302 301 302 301 300 298 297 297 297 296 297 297 295 292 293 295 298 300 298 295 294 292 292 292 292 293 299 300 300 300
313 318 317 313 309 306 304 304 303 302 302 301 300 299 299 299 299 297 297 296 296 295 294 294 295 294 292 291 296 297 298 297 293 290 290 291 290 289 289 292 292 293 297
310 316 313 309 307 305 303 302 301 299 299 298 298 297 297 297 297 296 295 295 294 293 293 293 293 292 291 292 291 293 293 293 291 289 288 288 288 288 287 288 290 288 288
305 312 310 307 305 305 304 300 300 298 297 296 296 295 295 295 295 295 294 293 293 292 292 291 290 291 290 290 288 289 286 290 290 290 288 288 285 286 287 287 288 287 285
303 307 306 305 305 302 301 300 298 297 296 295 294 293 294 294 294 294 293 292 291 291 290 290 289 289 287 288 288 287 283 283 285 288 286 285 284 284 284 285 286 288 285
299 302 302 301 300 300 300 298 297 294 293 294 293 292 292 293 292 293 292 291 290 290 289 290 289 288 287 284 286 288 287 287 282 280 284 284 285 284 283 283 284 287 285
297 299 301 301 301 302 300 301 299 294 294 293 292 291 291 291 291 291 291 290 289 289 288 288 287 287 286 285 284 284 284 284 282 279 277 280 283 283 283 283 283 284 284
296 297 299 300 300 301 300 299 296 294 293 291 291 290 290 290 289 289 289 288 288 288 287 286 286 285 284 284 284 284 283 282 280 279 278 278 278 280 282 282 281 282 282
Wind_Speed
5 10 13 12 14 17 16 16 16 16 16 16 16 16 15 15 15 15 15 15 15 14 14 14 13 13 12 12 12 12 12 11 11 11 10 8 8 10 11 11 11 6 10
13 11 14 17 18 17 15 16 15 15 15 15 15 15 15 15 15 14 14 14 13 13 13 12 12 12 11 11 11 11 11 11 11 11 11 8 4 11 12 11 10 7 10
14 13 14 17 16 16 16 15 14 15 15 15 14 14 14 14 14 13 13 12 12 11 12 11 11 11 11 11 11 11 11 11 12 13 13 3 2 12 13 12 11 12 12
14 12 13 16 17 17 17 16 14 15 14 14 14 14 13 13 12 12 12 11 11 11 11 10 11 10 9 9 9 10 10 10 11 12 4 4 5 13 12 11 11 10 9
14 11 11 15 17 17 17 16 15 14 14 14 13 13 12 11 11 11 10 9 10 9 10 10 9 9 9 9 9 9 9 10 12 9 5 5 5 9 10 11 7 8 7
13 12 11 15 16 17 16 16 15 15 15 13 12 11 10 10 9 9 8 8 8 8 9 8 8 8 8 8 8 9 9 10 9 6 5 7 4 9 9 9 8 7 7
12 12 10 14 16 16 15 16 14 15 14 13 12 10 9 8 7 7 6 6 7 7 7 7 7 7 7 7 7 7 8 9 6 6 3 5 4 8 10 11 11 11 11
14 11 9 11 14 15 14 14 13 13 13 12 11 10 8 6 6 5 5 5 6 7 8 8 8 7 7 7 7 7 8 8 6 4 3 4 7 11 11 11 12 13 14
14 11 9 11 11 11 11 10 11 10 10 9 9 7 6 5 4 3 2 3 5 6 6 7 6 7 8 8 8 8 9 9 3 6 7 4 10 12 13 14 16 18 20
13 13 10 10 9 7 6 9 10 10 9 8 6 5 5 6 5 4 3 1 3 4 4 5 6 8 9 9 6 8 10 9 9 6 5 7 18 22 23 22 21 22 23
12 13 11 10 9 8 7 7 8 9 7 7 5 6 3 3 3 3 3 3 4 6 6 4 6 7 7 6 5 4 7 6 7 6 6 18 19 21 20 19 19 22 24
10 11 12 11 11 9 7 7 5 5 3 3 2 2 1 3 3 4 6 8 8 7 8 7 7 7 6 3 3 3 5 7 7 7 7 18 18 20 18 17 21 22 21
9 8 8 9 10 9 6 5 3 3 3 3 6 5 4 4 5 4 4 4 4 7 3 4 4 4 7 5 5 4 8 7 5 6 10 20 20 17 16 19 21 19 21
8 8 5 8 10 6 6 4 4 4 4 4 4 6 4 4 5 4 3 3 4 3 5 5 4 5 7 6 6 6 8 6 5 5 9 19 19 19 14 20 18 17 20
10 8 6 8 9 8 6 5 6 5 5 4 4 6 4 5 4 3 5 5 5 5 5 5 5 5 6 7 6 6 9 10 10 6 6 18 19 18 18 18 17 18 17
9 8 8 7 7 8 8 7 6 6 6 5 5 5 6 5 4 6 6 6 6 5 4 5 5 5 5 5 6 6 9 9 10 8 6 9 17 17 16 17 17 17 16
6 7 8 7 11 12 10 8 6 6 6 6 5 6 5 6 7 6 6 6 5 5 7 6 6 6 6 6 6 5 8 10 9 9 7 6 6 14 15 15 15 16 16
9 8 6 10 12 11 10 7 6 6 5 5 5 6 7 8 8 7 6 5 5 5 5 5 4 4 5 5 4 4 5 8 9 9 8 6 5 5 9 14 13 13 14
8 9 9 11 13 13 11 9 8 8 6 5 5 6 8 8 8 7 6 5 5 5 5 4 5 4 4 4 4 4 4 6 8 8 8 7 7 5 4 10 11 11 12
7 8 11 9 12 12 10 9 7 7 7 6 6 6 7 6 8 6 6 6 5 5 6 4 5 4 3 3 3 4 4 5 5 5 6 6 5 6 5 5 3 5 10
6 8 12 13 12 10 9 8 6 5 6 6 6 7 7 6 7 7 5 6 6 6 5 6 2 6 8 6 3 4 5 5 6 5 4 5 6 5 6 5 3 3 4
5 7 10 11 11 8 7 6 5 7 6 6 6 6 6 7 6 7 6 6 6 6 8 7 6 3 4 7 3 2 1 1 4 4 3 5 6 5 5 6 4 4 4
7 9 10 10 11 8 10 10 9 9 7 5 5 4 5 6 7 7 8 7 6 5 6 6 5 5 3 4 7 4 3 1 2 2 4 4 5 4 4 5 6 4 4
6 8 10 10 10 10 10 10 11 8 8 4 4 4 5 6 7 7 7 7 7 5 6 5 6 5 3 4 3 5 5 3 1 4 2 3 7 6 6 5 5 3 4
7 8 10 11 10 10 10 9 7 7 8 7 6 8 6 5 7 7 6 6 7 5 5 6 6 6 5 3 4 2 4 4 4 2 4 4 4 4 4 4 4 4 3
7 8 10 13 11 8 7 8 11 13 10 9 8 6 5 4 5 6 7 6 6 5 5 5 5 7 6 5 4 4 3 2 1 2 3 3 4 4 10 4 3 3 2
Wind_Direction
157 136 133 129 142 123 117 110 103 98 97 98 99 98 95 91 89 85 83 81 78 75 72 69 65 60 55 50 46 41 36 27 15 11 14 9 26 40 33 27 20 359 16
138 135 129 124 125 119 118 112 108 105 103 103 102 99 96 91 88 84 81 79 77 74 70 66 62 57 51 45 41 36 29 17 6 356 357 2 25 34 29 23 16 5 11
138 137 132 125 123 123 118 114 111 110 109 107 105 99 95 92 89 85 79 75 74 72 69 62 57 54 47 41 36 30 21 9 357 349 356 14 101 29 25 20 16 15 12
138 138 135 131 129 126 122 119 117 115 112 108 103 99 95 91 86 81 76 70 66 62 60 57 54 50 47 41 34 28 18 2 353 344 347 355 44 24 22 17 10 8 4
138 133 132 132 130 128 127 124 120 116 111 107 104 103 101 96 91 85 80 73 68 61 54 51 48 44 37 33 32 28 17 358 352 3 352 63 45 24 14 10 3 358 345
135 128 137 135 131 129 130 128 127 126 120 115 110 105 98 92 88 83 78 71 62 48 43 43 41 37 29 21 17 16 7 351 358 342 24 65 38 20 8 348 13 351 338
124 130 139 140 133 133 134 133 129 126 124 121 114 105 99 95 86 77 71 64 57 49 40 34 29 23 15 7 2 360 348 346 351 8 81 65 21 13 357 358 9 8 4
129 131 143 139 133 135 136 133 131 128 127 123 118 113 108 96 94 88 70 56 40 30 24 21 16 9 1 354 346 351 342 341 13 359 65 34 359 9 356 9 15 29 40
127 125 129 133 132 124 128 129 125 122 117 115 118 125 132 144 148 123 99 48 30 23 17 13 3 357 356 351 342 356 345 340 33 44 38 15 3 5 28 48 57 57 54
126 128 129 133 131 122 127 123 120 120 121 127 140 160 181 190 201 191 163 93 33 26 5 358 358 359 2 341 337 352 347 7 68 55 35 21 39 52 53 54 55 54 60
133 139 140 138 136 133 129 132 129 136 148 159 175 215 252 256 220 227 168 82 30 23 345 348 353 0 7 22 42 347 4 79 70 52 49 57 48 47 47 49 55 62 60
136 154 154 151 152 149 151 151 152 150 162 199 184 188 69 44 105 79 67 43 44 26 49 26 46 32 33 23 36 26 82 82 70 64 55 57 46 46 44 57 64 62 53
136 134 148 157 155 157 153 156 160 154 171 67 45 31 26 51 63 57 50 30 21 16 13 41 45 44 37 25 28 31 94 83 73 63 55 52 48 48 51 61 57 56 49
137 148 131 147 151 150 143 153 153 98 73 71 47 30 29 58 56 56 67 43 27 8 33 39 44 39 33 26 39 53 97 95 83 73 56 61 51 48 47 49 44 45 48
136 138 148 134 140 149 125 90 97 92 84 78 57 40 50 71 72 69 47 44 31 27 34 41 34 33 28 14 16 62 85 86 82 72 60 60 55 48 51 48 46 51 48
147 156 163 155 151 91 91 91 89 92 89 76 68 57 53 68 58 63 58 45 36 24 26 41 43 34 27 21 15 55 100 102 94 86 78 65 63 57 57 51 48 47 43
149 166 172 163 109 104 101 97 91 88 85 85 76 59 53 62 69 67 61 52 38 27 33 36 35 33 25 12 21 47 95 97 95 86 75 59 44 47 55 53 52 48 38
125 122 104 122 115 103 102 95 92 93 93 82 76 66 57 68 71 68 64 50 34 35 39 43 33 32 17 14 8 30 90 98 90 81 77 67 50 42 40 53 48 44 41
137 134 114 114 109 109 102 101 97 98 90 78 71 65 56 66 70 75 71 55 48 47 38 36 40 38 17 0 6 52 85 106 100 91 77 68 64 49 27 40 54 50 37
112 123 119 115 118 113 110 107 100 89 77 69 65 61 61 64 71 71 64 59 48 51 39 40 61 36 18 347 9 63 65 75 80 78 85 78 65 51 42 32 48 39 43
85 117 130 128 131 133 129 125 115 107 95 80 70 56 50 61 68 71 67 64 55 58 43 30 54 51 25 6 62 43 48 60 71 69 65 60 60 36 24 23 66 63 37
107 117 127 130 136 140 134 122 119 120 96 93 79 66 62 60 63 76 75 66 54 57 46 34 30 41 44 17 69 92 63 97 45 72 60 64 54 35 10 8 46 88 82
124 131 130 136 139 126 124 117 112 108 111 102 81 77 64 69 61 67 73 74 61 60 60 42 33 43 61 27 43 101 61 329 336 251 60 55 41 28 357 356 353 115 96
129 124 119 115 117 119 128 130 136 138 133 114 124 101 80 73 74 66 69 77 72 60 56 53 48 48 61 41 16 35 60 95 53 325 331 38 16 4 344 337 337 51 68
134 132 130 123 115 121 133 146 125 117 113 126 122 111 100 85 84 81 76 70 74 68 62 63 48 58 50 64 61 18 31 46 50 46 284 319 343 346 328 335 354 31 32
132 131 134 129 121 105 92 127 130 129 145 134 130 125 118 97 84 84 86 81 80 77 66 64 62 58 62 55 46 42 60 66 27 20 309 312 297 310 314 322 18 17 5